Location: Hastringsfeld
(50.9620°N, 10.4787°E)
Time: 05:27:44
(UTC+00:00)

SL-16 R/B - Pass Details

Date: 26 September 2023
Orbit: 985 x 1006 km, 99.7° (Epoch: 29 November)

Event Time Altitude Azimuth Distance (km) Brightness Sun altitude
Exits shadow 01:29:00 64° 348° (NNW) 1,098 2.7 -32.1°
Drops below altitude 10° 01:34:10 10° 344° (NNW) 2,765 5.2 -31.6°
Sets 01:36:38 0° 344° (NNW) 3,716 5.9 -31.3°
